Location: Keewatin
(47.4004°N, 93.0827°W)
Time: 02:55:03
(UTC+00:00)

ZACube-1 - Visible Passes

Search period start: 28 February 2020 00:00
Search period end: 09 March 2020 00:00
Orbit: 585 x 665 km, 97.6° (Epoch: 27 February)

Date Brightness Start Highest point End Pass type
(mag) Time Alt. Az. Time Alt. Az. Time Alt. Az.
28 Feb ? 11:31:50 10° NE 11:35:47 28° E 11:39:39 10° SSE visible
29 Feb ? 11:50:29 10° NNE 11:54:51 42° E 11:59:07 10° S visible
01 Mar ? 00:26:00 10° SW 00:29:23 21° W 00:32:50 10° NW visible
01 Mar ? 12:09:18 10° NNE 12:13:52 65° E 12:18:19 10° S visible
02 Mar ? 00:46:13 10° WSW 00:48:33 14° W 00:50:54 10° NW visible
02 Mar ? 10:54:11 10° ENE 10:55:57 12° E 10:57:42 10° ESE visible
03 Mar ? 11:11:58 10° NE 11:15:08 18° E 11:18:14 10° SE visible
04 Mar ? 11:30:22 10° NE 11:34:16 27° E 11:38:04 10° SSE visible
05 Mar ? 11:49:01 10° NNE 11:53:20 41° E 11:57:32 10° SSE visible
06 Mar ? 12:07:49 10° NNE 12:12:21 64° E 12:16:45 10° S visible
07 Mar ? 00:44:35 10° WSW 00:47:01 14° W 00:49:29 10° NW visible
07 Mar ? 10:52:51 10° ENE 10:54:25 12° E 10:55:58 10° ESE visible
08 Mar ? 11:10:32 10° NE 11:13:36 18° E 11:16:36 10° SE visible
